Location: Karlsruhe
(49.0131°N, 8.3874°E)
Time: 04:30:22
(UTC+01:00)

ISS - Pass Details

Date: 13 January 2018
Orbit: 401 x 406 km, 51.6° (Epoch: 17 January)

Event Time Altitude Azimuth Distance (km) Brightness Sun altitude
Exits shadow 05:34:43 25° 118° (ESE) 860 -1.6 -25.8°
Drops below altitude 10° 05:36:14 10° 116° (ESE) 1,462 -0.1 -25.6°
Sets 05:38:19 0° 115° (ESE) 2,320 1.1 -25.2°
